Starlink 35660

operational
NORAD ID: 67003 Int'l Des: 2025-293 Owner: SPXS Country: US Constellation: starlink
LEOCIRCULAR

About Starlink 35660

Description loading...

Live Position

Loading 3D Globe...

Upcoming Passes

Altitude History

Altitude vs Time

uPlot chart will show altitude changes over time

Two-Line Element Set

1 67003U 25293A 26014.25002315 -.02456633 00000-0 -79071-1 0 9994
2 67003 70.0006 232.5663 0003965 276.8533 17.3641 15.35934280 5361
Epoch: Jan 14, 2026 • Age: 12 hours

Current Status

Altitude 472.0 km
Velocity 7.63 km/s
Sub-Earth Point -17.34°S, 32.01°E
Launch Date Dec 10, 2025
Age 35 days
Type internet

Technical Details

Classification Payload
Mass 575.00 kg
Dry Mass 530.00 kg
Total Mass 575.00 kg
Length 0.30 m
Diameter 4.10 m
Span 29.00 m
Shape Box + pan
Manufacturer SPXS
Bus Type Starlink V2MO
Phase Status In Orbit
Owner/State SPXS/US

Large Constellations

Loading constellations...